date,batt_volt,AirTemp_C,Solar_kW,RH,Manual_BP,StationID,WS_ms,PTemp,WS_15min_max,Prog_Sig,Solar_Raw,Bar_mbar,Solar_MJ,Max_WS_2min,Pressure_Raw,Rain_mm,WD_15min_ave,Max_AirTemp_1min,WindDir,WS_15min_med,WS_15min_ave,Elevation_Correction
2020-11-01T00:00:18Z,13.25885,1.709003,-0.0004828185,38.8922,0,1156,0,3.099468,0,43690,0.0,1030.531,-2.414093e-06,0,1028.73,0,359.095660894,1.81,29.80615,0,0,1.80078
2020-11-01T00:15:24Z,13.27064,1.337143,0.0,40.99776,0,1156,0,2.887096,0,43690,0.0,1030.531,0.0,0,1028.73,0,19.0135131663,1.371,340.8431,0,0,1.80078
2020-11-01T00:30:23Z,13.27655,1.099968,0.0,41.47329,0,1156,0,2.609211,0,43690,0.0,1030.531,0.0,0,1028.73,0,32.9389181747,1.168,30.53038,0,0,1.80078
2020-11-01T00:45:22Z,13.28896,1.816452,0.0,39.746,0,1156,0,2.394581,0,43690,0.0,1030.531,0.0,0,1028.73,0,12.1257967934,1.816,5.133037,0,0,1.80078
2020-11-01T01:00:21Z,13.28393,1.683441,0.0,40.46145,0,1156,0,2.310989,0,43690,0.0,1030.8,0.0,0,1028.999,0,15.4773078798,1.751,38.65698,0,0,1.80078
2020-11-01T01:15:26Z,13.27842,1.649681,0.0,41.10657,0,1156,0,2.268063,0,43690,0.0,1030.8,0.0,0,1028.999,0,21.4777514494,1.819,2.675152,0,0,1.80078
2020-11-01T01:30:24Z,13.28396,1.751514,0.0,40.52952,0,1156,0,2.202545,0,43690,0.0,1030.8,0.0,0,1028.999,0,3.31172768588,1.853,0.4579089,0,0,1.80078
2020-11-01T01:45:23Z,13.28949,1.751514,0.0,40.93685,0,1156,0,2.096359,0,43690,0.0,1030.8,0.0,0,1028.999,0,5.66086461421,1.785,2.55465,0,0,1.80078
2020-11-01T02:00:26Z,13.28949,1.921234,0.0,41.24235,0,1156,0,2.076027,0,43690,0.0,1030.966,0.0,0,1029.165,0,14.8068951508,2.057,24.67888,0,0,1.80078
2020-11-01T02:15:24Z,13.29502,1.751514,0.0,43.17717,0,1156,0,2.053432,0,43690,0.0,1030.966,0.0,0,1029.165,0,10.6673243283,1.887,16.43652,0,0,1.80078
2020-11-01T02:30:27Z,13.28396,1.921234,0.0,42.4304,0,1156,0,2.010509,0,43690,0.0,1030.966,0.0,0,1029.165,0,355.867359472,1.921,327.3326,0,0,1.80078
2020-11-01T02:45:24Z,13.27844,1.751514,0.0,43.85606,0,1156,0,2.053432,0,43690,0.0,1030.966,0.0,0,1029.165,0,357.982556244,1.819,10.2427,0,0,1.80078
2020-11-01T03:00:27Z,13.27291,2.192791,0.0,42.49829,0,1156,0,2.076027,0,43690,0.0,1030.884,0.0,0,1029.083,0,356.255686938,2.329,15.5207,0,0,1.80078
2020-11-01T03:15:24Z,13.27844,1.853348,0.0,43.51662,0,1156,0,2.139286,0,43690,0.0,1030.884,0.0,0,1029.083,0,13.7202898643,2.023,37.18702,0,0,1.80078
2020-11-01T03:30:27Z,13.27844,1.242348,0.0,46.0285,0,1156,0,2.053432,0,43690,0.0,1030.884,0.0,0,1029.083,0,37.0098249081,1.412,51.5268,0,0,1.80078
2020-11-01T03:45:23Z,13.28949,1.615738,0.0,46.30005,0,1156,0,1.904324,0,43690,0.0,1030.884,0.0,0,1029.083,0,14.8980280445,1.752,334.8278,0,0,1.80078
2020-11-01T04:00:28Z,13.29502,1.446014,0.0,46.91105,0,1156,0,1.820732,0,43690,0.0,1030.395,0.0,0,1028.595,0,353.167696421,1.684,354.5179,0,0,1.80078
2020-11-01T04:15:24Z,13.30608,-0.8621978,0.0,59.1989,0,1156,0,1.58577,0,43690,0.0,1030.395,0.0,0,1028.595,0,327.845608583,-0.659,113.8506,0,0,1.80078
2020-11-01T04:30:27Z,13.32266,-1.031921,0.0,66.53087,0,1156,0,1.267216,0,43690,0.0,1030.395,0.0,0,1028.595,0,91.430649196,-0.9640001,59.33535,0,0,1.80078
2020-11-01T04:45:30Z,13.31713,0.1221848,0.0,65.7841,0,1156,0,1.011921,0,43690,0.0,1030.395,0.0,0,1028.595,0,80.8835103693,0.36,330.4656,0,0,1.80078
2020-11-01T05:00:26Z,13.30608,2.498287,0.0,71.31702,0,1156,0,0.9893265,0,43690,0.0,1029.499,0.0,0,1027.699,0,252.625185244,2.091,226.7372,0,0,1.80078
2020-11-01T05:15:28Z,13.27844,4.806503,0.0,66.70059,0,1156,0,1.456993,0,43690,0.0,1029.499,0.0,0,1027.699,0,240.679818557,4.807,246.9093,0,0,1.80078
2020-11-01T05:30:30Z,13.25632,5.01017,0.0,67.51525,0,1156,0,2.202545,0,43690,0.0,1029.499,0.0,0,1027.699,0,239.547437769,5.146,244.2823,0,0,1.80078
2020-11-01T05:45:26Z,13.23852,5.006554,0.0,64.6248,0,1156,0,2.907433,0,43690,0.0,1029.499,0.0,0,1027.699,0,239.97361535,5.177,231.3218,0,0,1.80078
2020-11-01T06:00:29Z,13.22497,4.896034,0.0,64.54441,0,1156,0,3.591984,0,43690,0.0,1029.273,0.0,0,1027.472,0,234.86578898,5.033,245.637,0,0,1.80078
2020-11-01T06:15:30Z,13.21317,5.096802,0.0,64.50641,0,1156,0,3.955723,0,43690,0.0,1029.273,0.0,0,1027.472,0,241.908950322,5.199,239.6947,0,0,1.80078
2020-11-01T06:30:27Z,13.20763,5.062801,0.0,65.6261,0,1156,0,4.21328,0,43690,0.0,1029.273,0.0,0,1027.472,0,242.87839733,5.131,247.6689,0,0,1.80078
2020-11-01T06:45:29Z,13.21315,5.164596,0.0,64.37058,0,1156,0,4.407574,0,43690,0.0,1029.273,0.0,0,1027.472,0,241.486714879,5.266,244.6092,0,0,1.80078
2020-11-01T07:00:27Z,13.2021,5.13026,0.0,65.08258,0,1156,0,4.665127,0,43690,0.0,1028.827,0.0,0,1027.026,0,237.025126895,5.232,232.1996,0,0,1.80078
2020-11-01T07:15:30Z,13.19494,5.092651,0.0,60.36104,0,1156,0,4.859424,0,43690,0.0,1028.827,0.0,0,1027.026,0,239.730625714,5.331,244.3221,0,0,1.80078
2020-11-01T07:30:31Z,13.1935,5.016415,0.0,65.06517,0,1156,0,4.965607,0,43690,0.0,1028.827,0.0,0,1027.026,0,241.451836392,5.153,217.2044,0,0,1.80078
2020-11-01T07:45:33Z,13.19803,5.048527,0.0,60.61876,0,1156,0,4.945274,0,43690,0.0,1028.827,0.0,0,1027.026,0,239.156904679,5.219,235.9576,0,0,1.80078
2020-11-01T08:00:29Z,13.19213,5.01458,0.0,56.95515,0,1156,0,4.945274,0,43690,0.0,1028.657,0.0,0,1026.856,0,236.56558402,5.184,238.5827,0,0,1.80078
2020-11-01T08:15:30Z,13.20897,5.149635,0.0,61.73729,0,1156,0,4.945274,0,43690,0.0,1028.657,0.0,0,1026.856,0,235.929604758,5.184,243.2276,0,0,1.80078
2020-11-01T08:30:32Z,13.21437,5.285866,0.0,59.90625,0,1156,0,4.922684,0,43690,0.0,1028.657,0.0,0,1026.856,0,238.01020718,5.354,239.0157,0,0,1.80078
2020-11-01T08:45:33Z,13.21454,4.607742,0.0,61.19571,0,1156,0,4.965607,0,43690,0.0,1028.657,0.0,0,1026.856,0,232.348463195,4.778,222.0617,0,0,1.80078
2020-11-01T09:00:34Z,13.2032,4.403446,0.0,62.55153,0,1156,0,4.965607,0,43690,0.0,1028.66,0.0,0,1026.859,0,230.636762885,4.505,224.7072,0,0,1.80078
2020-11-01T09:15:30Z,13.19764,4.335774,0.0,64.9263,0,1156,0,4.922684,0,43690,0.0,1028.66,0.0,0,1026.859,0,227.178492949,4.37,233.3785,0,0,1.80078
2020-11-01T09:30:31Z,13.20353,4.136158,0.0,64.35534,0,1156,0,4.859424,0,43690,0.0,1028.66,0.0,0,1026.859,0,227.611456384,4.272,223.5237,0,0,1.80078
2020-11-01T09:45:32Z,13.1992,3.865314,0.0,63.71157,0,1156,0,4.83683,0,43690,0.0,1028.66,0.0,0,1026.859,0,226.735884963,3.967,223.8396,0,0,1.80078
2020-11-01T10:00:31Z,13.1997,3.832943,0.0,67.81893,0,1156,0,4.793907,0,43690,0.0,1029.384,0.0,0,1027.583,0,225.674050849,3.833,231.1221,0,0,1.80078
2020-11-01T10:15:32Z,13.21093,3.464111,0.0,68.47039,0,1156,0,4.75098,0,43690,0.0,1029.384,0.0,0,1027.583,0,224.862244382,3.464,228.0858,0,0,1.80078
2020-11-01T10:30:34Z,13.21271,3.635734,0.0,68.40563,0,1156,0,4.665127,0,43690,0.0,1029.384,0.0,0,1027.583,0,225.529769928,3.737,219.616,0,0,1.80078
2020-11-01T10:45:36Z,13.21314,3.773174,0.001447996,68.06898,0,1156,0,4.579277,0,43690,0.1013597,1029.384,7.23998e-06,0,1027.583,0,226.304138221,3.875,228.2255,0,0,1.80078
2020-11-01T11:00:33Z,13.20761,4.010849,0.006274595,69.76585,0,1156,0,4.579277,0,43690,0.4392217,1028.75,3.137298e-05,0,1026.949,0,225.310117211,4.045,223.0946,0,0,1.80078
2020-11-01T11:15:35Z,13.20173,4.112476,0.01254919,69.69771,0,1156,0,4.708054,0,43690,0.8784434,1028.75,6.274595e-05,0,1026.949,0,227.412622862,4.282,228.8759,0,0,1.80078
2020-11-01T11:30:32Z,13.20035,4.582275,0.01930645,68.1627,0,1156,0,4.83683,0,43690,1.351451,1028.75,9.653223e-05,0,1026.949,0,229.370801008,4.583,220.3454,0,0,1.80078
2020-11-01T11:45:36Z,13.18715,4.745544,0.02171975,69.40818,0,1156,0,5.074051,0,43690,1.520383,1028.75,0.0001085988,0,1026.949,0,227.782358907,4.883,237.5836,0,0,1.80078
2020-11-01T12:00:33Z,13.19211,4.912094,0.02461572,68.11442,0,1156,0,5.290939,0,43690,1.7231,1027.843,0.0001230786,0,1026.042,0,228.181197957,4.912,227.5483,0,0,1.80078
2020-11-01T12:17:32Z,13.19209,4.776131,0.05067942,68.86026,0,1156,0,5.462643,0,43690,3.54756,1027.843,0.0002533971,0,1026.042,0,227.478160073,4.844,230.6055,0,0,1.80078
2020-11-01T12:32:32Z,13.18657,4.776131,0.05116208,68.62282,0,1156,0,5.636604,0,43690,3.581346,1027.843,0.0002558104,0,1026.042,0,222.107111951,4.708,228.8956,0,0,1.80078
2020-11-01T12:47:29Z,13.17,4.843975,0.1573421,67.1642,0,1156,0,5.982273,0,43690,11.01395,1027.843,0.0007867103,0,1026.042,0,224.030425217,5.048,233.2789,0,0,1.80078
2020-11-01T13:02:31Z,13.15342,5.284954,0.135145,67.23204,0,1156,0,6.766231,0,43690,9.460146,1028.979,0.0006757247,0,1027.178,0,228.792772436,5.353,225.9814,0,0,1.80078
2020-11-01T13:17:28Z,13.13685,5.622768,0.1669531,65.80533,0,1156,0,7.355892,0,43690,11.68672,1028.979,0.0008347654,0,1027.178,0,230.015993826,5.793,227.0823,0,0,1.80078
2020-11-01T13:32:32Z,13.12879,5.614063,0.1814195,66.8441,0,1156,0,7.861965,0,43690,12.69937,1028.979,0.0009070975,0,1027.178,0,228.715934005,5.649,222.1269,0,0,1.80078
2020-11-01T13:47:30Z,13.1049,5.812294,0.1437844,62.86898,0,1156,0,8.325115,0,43690,10.06491,1028.979,0.0007189221,0,1027.178,0,227.231964492,6.016,237.799,0,0,1.80078
2020-11-01T14:02:33Z,13.11031,5.87997,0.1341279,64.66601,0,1156,0,8.612042,0,43690,9.388955,1027.66,0.0006706396,0,1025.86,0,228.905004882,6.05,220.1024,0,0,1.80078
2020-11-01T14:17:30Z,13.10478,6.01561,0.1871825,64.53036,0,1156,0,8.810856,0,43690,13.10278,1027.66,0.0009359126,0,1025.86,0,224.667988558,6.016,224.3398,0,0,1.80078
2020-11-01T14:32:34Z,13.09374,6.185158,0.2055172,62.25841,0,1156,0,9.034519,0,43690,14.38621,1027.66,0.001027586,0,1025.86,0,229.017553577,6.389,227.4215,0,0,1.80078
2020-11-01T14:47:30Z,13.08822,6.592079,0.1977946,63.34352,0,1156,0,9.368885,0,43690,13.84563,1027.66,0.0009889732,0,1025.86,0,225.163361881,6.694,225.688,0,0,1.80078
2020-11-01T15:02:32Z,13.08799,6.828979,0.415788,60.29104,0,1156,0,9.660328,0,43690,29.10516,1026.674,0.00207894,0,1024.873,0,220.645826304,6.998,224.3617,0,0,1.80078
2020-11-01T15:17:34Z,13.05103,7.764274,0.6675524,60.23926,0,1156,0,10.40362,0,43690,46.72866,1026.674,0.003337762,0,1024.873,0,230.70335403,7.561,244.8978,0,0,1.80078
2020-11-01T15:32:34Z,13.0341,7.830566,0.618836,56.00007,0,1156,0,11.10625,0,43690,43.31852,1026.674,0.00309418,0,1024.873,0,221.441314222,7.864,222.9643,0,0,1.80078
2020-11-01T15:47:31Z,13.00097,8.406269,0.5599104,57.55872,0,1156,0,11.97832,0,43690,39.19373,1026.674,0.002799552,0,1024.873,0,225.853270948,8.78,225.3203,0,0,1.80078
2020-11-01T16:02:34Z,12.99757,8.800469,0.5578764,57.23888,0,1156,0,12.69677,0,43690,39.05134,1023.96,0.002789382,0,1022.159,0,230.288253283,8.8,217.3461,0,0,1.80078
2020-11-01T16:17:35Z,12.98004,8.93267,0.5569091,57.50605,0,1156,0,13.21187,0,43690,38.98364,1023.96,0.002784545,0,1022.159,0,223.405349467,8.97,258.8823,0,0,1.80078
2020-11-01T16:32:33Z,12.97449,9.745869,0.5467,55.09999,0,1156,0,13.65921,0,43690,38.269,1023.96,0.0027335,0,1022.159,0,230.142014064,9.75,211.4121,0,0,1.80078
2020-11-01T16:47:36Z,12.96182,10.01061,0.5442861,51.33203,0,1156,0,14.1585,0,43690,38.10003,1023.96,0.002721431,0,1022.159,0,230.800290329,10.15,226.0839,0,0,1.80078
2020-11-01T17:02:34Z,12.94269,11.05193,0.507081,53.08452,0,1156,0,14.75494,0,43690,35.49567,1022.428,0.002535405,0,1020.627,0,235.926307348,11.36,243.2172,0,0,1.80078
2020-11-01T17:17:33Z,12.94254,10.37273,0.1952139,56.3348,0,1156,0,15.04413,0,43690,13.66498,1022.428,0.0009760697,0,1020.627,0,234.19854686,10.34,310.8661,0,0,1.80078
2020-11-01T17:32:37Z,12.95362,10.44093,0.2887238,56.36918,0,1156,0,14.89953,0,43690,20.21066,1022.428,0.001443619,0,1020.627,0,36.0573537294,10.58,122.6158,0,0,1.80078
2020-11-01T17:47:34Z,12.96001,10.37441,0.1773795,57.21747,0,1156,0,14.80465,0,43690,12.41657,1022.428,0.0008868977,0,1020.627,0,230.669485344,10.65,120.1655,0,0,1.80078
2020-11-01T18:02:37Z,12.95959,10.47718,0.2067913,58.811,0,1156,0,14.58776,0,43690,14.47539,1020.652,0.001033956,0,1018.852,0,258.975021529,10.55,47.74497,0,0,1.80078
2020-11-01T18:17:34Z,12.95973,10.51202,0.1142628,56.64392,0,1156,0,14.51546,0,43690,7.998396,1020.652,0.000571314,0,1018.852,0,47.0566603276,10.65,47.07238,0,0,1.80078
2020-11-01T18:32:38Z,12.96127,10.58154,0.1084714,58.27211,0,1156,0,14.32342,0,43690,7.592995,1020.652,0.0005423568,0,1018.852,0,41.3210286237,10.68,351.8646,0,0,1.80078
2020-11-01T18:47:36Z,12.96806,10.28673,0.04772789,58.41936,0,1156,0,14.06135,0,43690,3.340952,1020.652,0.0002386394,0,1018.852,0,19.1242777765,10.46,2.718669,0,0,1.80078
2020-11-01T19:02:39Z,12.97998,10.38967,0.03904938,60.5896,0,1156,0,13.72924,0,43690,2.733457,1019.496,0.0001952469,0,1017.695,0,41.7090461355,10.46,346.8917,0,0,1.80078
2020-11-01T19:17:37Z,12.98553,10.25415,0.06750191,63.5039,0,1156,0,13.49428,0,43690,4.725134,1019.496,0.0003375096,0,1017.695,0,309.42652589,10.32,177.6323,0,0,1.80078
2020-11-01T19:32:39Z,12.98553,10.08471,0.04677066,66.75703,0,1156,0,13.28191,0,43690,3.273946,1019.496,0.0002338533,0,1017.695,0,257.789741176,10.12,262.2501,0,0,1.80078
2020-11-01T19:47:36Z,13.00208,9.610298,0.06075369,70.45069,0,1156,0,12.78939,0,43690,4.252758,1019.496,0.0003037685,0,1017.695,0,236.834298766,9.61,141.6632,0,0,1.80078
2020-11-01T20:02:40Z,13.00907,9.75119,0.01880471,69.10264,0,1156,0,12.37143,0,43690,1.31633,1018.721,9.402357e-05,0,1016.92,0,231.288562891,9.82,9.817386,0,0,1.80078
2020-11-01T20:17:37Z,13.00426,9.85587,0.03085902,69.85245,0,1156,0,12.27881,0,43690,2.160131,1018.721,0.0001542951,0,1016.92,0,181.863685886,9.96,329.8167,0,0,1.80078
2020-11-01T20:32:41Z,13.00428,9.957622,0.01398299,71.20825,0,1156,0,12.32624,0,43690,0.9788094,1018.721,6.991496e-05,0,1016.92,0,350.817230039,10.03,301.013,0,0,1.80078
2020-11-01T20:47:38Z,13.00428,10.02541,0.004821722,71.34382,0,1156,0,12.34884,0,43690,0.3375205,1018.721,2.410861e-05,0,1016.92,0,248.854712886,10.06,87.88068,0,0,1.80078
2020-11-01T21:02:41Z,13.0098,10.09319,0.001446516,70.90322,0,1156,0,12.34884,0,43690,0.1012562,1016.086,7.232582e-06,0,1014.286,0,262.114198213,10.26,136.9706,0,0,1.80078
2020-11-01T21:17:39Z,13.02084,10.19487,0.0004821722,72.25893,0,1156,0,12.39402,0,43690,0.03375205,1016.086,2.410861e-06,0,1014.286,0,28.6022667224,10.3,11.38214,0,0,1.80078
2020-11-01T21:32:42Z,13.02636,10.43212,0.0,74.1569,0,1156,0,12.39402,0,43690,0.0,1016.086,0.0,0,1014.286,0,2.2008195463,10.43,321.419,0,0,1.80078
2020-11-01T21:47:41Z,13.0317,10.5338,0.0,75.91932,0,1156,0,12.39402,0,43690,0.0,1016.086,0.0,0,1014.286,0,25.6947399509,10.53,354.0494,0,0,1.80078
2020-11-01T22:02:39Z,13.02636,10.77088,0.0,76.73249,0,1156,0,12.44147,0,43690,0.0,1015.188,0.0,0,1013.388,0,339.331396608,10.74,85.81091,0,0,1.80078
2020-11-01T22:17:43Z,13.01451,10.97301,0.0,76.79843,0,1156,0,12.58154,0,43690,0.0,1015.188,0.0,0,1013.388,0,30.9338590011,11.14,65.0665,0,0,1.80078
2020-11-01T22:32:41Z,13.00822,11.37519,0.0,76.08002,0,1156,0,12.81424,0,43690,0.0,1015.188,0.0,0,1013.388,0,22.3390087445,11.38,148.432,0,0,1.80078
2020-11-01T22:47:42Z,12.99663,11.77915,0.0,75.19498,0,1156,0,13.00177,0,43690,0.0,1015.188,0.0,0,1013.388,0,8.60822186515,11.78,72.13093,0,0,1.80078
2020-11-01T23:02:40Z,12.99657,11.37244,0.0,79.73571,0,1156,0,13.23446,0,43690,0.0,1013.966,0.0,0,1012.166,0,42.7967659333,11.41,21.89428,0,0,1.80078
2020-11-01T23:17:39Z,12.99657,11.10134,0.0,82.14168,0,1156,0,13.28191,0,43690,0.0,1013.966,0.0,0,1012.166,0,73.1363174072,11.17,57.40632,0,0,1.80078
2020-11-01T23:32:41Z,12.99657,11.50798,0.0,80.92175,0,1156,0,13.3045,0,43690,0.0,1013.966,0.0,0,1012.166,0,55.8822256407,11.54,69.84515,0,0,1.80078
2020-11-01T23:47:41Z,12.99105,11.50798,0.0,81.87058,0,1156,0,13.3768,0,43690,0.0,1013.966,0.0,0,1012.166,0,64.087099758,11.51,27.11522,0,0,1.80078
2020-11-02T00:03:05Z,12.99105,11.27078,0.0,83.19217,0,1156,0.0,13.44684,0.0,43690,0.0,1012.665,0.0,0.0,1010.864,0,72.8192021648,11.41,61.3521,0.0,0.0,1.80078
2020-11-02T00:18:05Z,12.98553,11.44021,0.0,82.88719,0,1156,0.0,13.51687,0.0,43690,0.0,1012.665,0.0,0.0,1010.864,0,65.2895733447,11.51,76.24502,0.0,0.0,1.80078
2020-11-02T00:33:01Z,12.98553,11.91463,0.0,81.19285,0,1156,0.0,13.63662,0.0,43690,0.0,1012.665,0.0,0.0,1010.864,0,69.5417113428,11.95,100.6415,0.0,0.0,1.80078
2020-11-02T00:48:05Z,12.97449,12.45681,0.0,80.10846,0,1156,0.0,13.84898,0.0,43690,0.0,1012.665,0.0,0.0,1010.864,0,54.6136959263,12.46,50.33278,0.0,0.0,1.80078
2020-11-02T01:03:03Z,12.96897,12.7618,0.0,79.4985,0,1156,0.0,14.13365,0.0,43690,0.0,1010.225,0.0,0.0,1008.424,0,61.371406361,12.8,24.99797,0.0,0.0,1.80078
2020-11-02T01:18:02Z,12.9679,12.92672,0.0,80.10164,0,1156,0.0,14.27598,0.0,43690,0.0,1010.225,0.0,0.0,1008.424,0,44.2032416019,12.99,270.648,0.0,0.0,1.80078
2020-11-02T01:33:06Z,12.96031,13.32713,0.0,78.6355,0,1156,0.0,14.37313,0.0,43690,0.0,1010.225,0.0,0.0,1008.424,0,54.0072105528,13.33,346.6057,0.0,0.0,1.80078
2020-11-02T01:48:04Z,12.94893,13.66194,0.0,77.5117,0,1156,0.0,14.75494,0.0,43690,0.0,1010.225,0.0,0.0,1008.424,0,36.5444996984,13.73,7.865337,0.0,0.0,1.80078
2020-11-02T02:03:08Z,12.94835,13.65985,0.0,80.11714,0,1156,0.0,14.80465,0.0,43690,0.0,1009.015,0.0,0.0,1007.215,0,13.2679069533,13.69,21.47851,0.0,0.0,1.80078
2020-11-02T02:18:06Z,12.94859,13.2195,0.0,85.13086,0,1156,0.0,14.82724,0.0,43690,0.0,1009.015,0.0,0.0,1007.215,0,20.3390698127,13.29,259.0651,0.0,0.0,1.80078
2020-11-02T02:33:03Z,12.94888,13.38978,0.0,84.6919,0,1156,0.0,14.82724,0.0,43690,0.0,1009.015,0.0,0.0,1007.215,0,26.2252347255,13.39,349.6031,0.0,0.0,1.80078
2020-11-02T02:48:06Z,12.94823,13.38857,0.0,86.31604,0,1156,0.0,14.80465,0.0,43690,0.0,1009.015,0.0,0.0,1007.215,0,32.4590833416,13.52,0.07215587,0.0,0.0,1.80078
2020-11-02T03:03:09Z,12.94863,13.32298,0.0,88.52157,0,1156,0.0,14.85209,0.0,43690,0.0,1006.185,0.0,0.0,1004.384,0,33.8001085333,13.43,55.51416,0.0,0.0,1.80078
2020-11-02T03:18:06Z,12.94859,13.32116,0.0,89.8397,0,1156,0.0,14.87694,0.0,43690,0.0,1006.185,0.0,0.0,1004.384,0,24.89317604,13.32,23.06597,0.0,0.0,1.80078
2020-11-02T03:33:06Z,12.94825,13.2203,0.0,91.39934,0,1156,0.0,14.92439,0.0,43690,0.0,1006.185,0.0,0.0,1004.384,0,35.1020145185,13.29,3.559764,0.0,0.0,1.80078
2020-11-02T03:48:06Z,12.94252,13.45794,0.0,91.09531,0,1156,0.0,14.99669,0.0,43690,0.0,1006.185,0.0,0.0,1004.384,0,44.8790868035,13.46,54.79201,0.0,0.0,1.80078
2020-11-02T04:03:08Z,12.94251,13.38853,0.0,91.43125,0,1156,0.0,15.09383,0.0,43690,0.0,1004.857,0.0,0.0,1003.056,0,68.0502689634,13.46,92.09488,0.0,0.0,1.80078
2020-11-02T04:18:10Z,12.94251,13.3882,0.0,92.27758,0,1156,0.0,15.14128,0.0,43690,0.0,1004.857,0.0,0.0,1003.056,0,66.2617823201,13.46,15.60961,0.0,0.0,1.80078
2020-11-02T04:33:06Z,12.93708,13.55703,0.0,91.70074,0,1156,0.0,15.21357,0.0,43690,0.0,1004.857,0.0,0.0,1003.056,0,60.370765025,13.56,73.83823,0.0,0.0,1.80078
2020-11-02T04:48:08Z,12.937,13.59081,0.0,91.49733,0,1156,0.0,15.23842,0.0,43690,0.0,1004.857,0.0,0.0,1003.056,0,56.5561854628,13.62,43.2927,0.0,0.0,1.80078
2020-11-02T05:03:09Z,12.937,13.59081,0.0,92.10709,0,1156,0.0,15.33557,0.0,43690,0.0,1002.004,0.0,0.0,1000.203,0,50.0946451271,13.62,49.32963,0.0,0.0,1.80078
2020-11-02T05:18:11Z,12.937,13.52306,0.0,93.29273,0,1156,0.0,15.40786,0.0,43690,0.0,1002.004,0.0,0.0,1000.203,0,64.8070943014,13.56,25.85536,0.0,0.0,1.80078
2020-11-02T05:33:07Z,12.93148,13.38756,0.0,94.20736,0,1156,0.0,15.50502,0.0,43690,0.0,1002.004,0.0,0.0,1000.203,0,71.8110775386,13.49,60.75409,0.0,0.0,1.80078
2020-11-02T05:48:09Z,12.93148,13.48918,0.0,94.85099,0,1156,0.0,15.57957,0.0,43690,0.0,1002.004,0.0,0.0,1000.203,0,69.1413302206,13.49,88.2209,0.0,0.0,1.80078
2020-11-02T06:03:11Z,12.93148,13.31981,0.0,95.15587,0,1156,0.0,15.60442,0.0,43690,0.0,999.4839,0.0,0.0,997.6831,0,85.9320413831,13.35,107.0532,0.0,0.0,1.80078
2020-11-02T06:18:08Z,12.93148,13.21818,0.0,95.69787,0,1156,0.0,15.60442,0.0,43690,0.0,999.4839,0.0,0.0,997.6831,0,87.2136834485,13.29,143.5875,0.0,0.0,1.80078
2020-11-02T06:33:10Z,12.93148,13.15043,0.0,96.03663,0,1156,0.0,15.60442,0.0,43690,0.0,999.4839,0.0,0.0,997.6831,0,85.6621039211,13.22,98.46684,0.0,0.0,1.80078
2020-11-02T06:48:11Z,12.93148,13.28593,0.0,96.206,0,1156,0.0,15.62701,0.0,43690,0.0,999.4839,0.0,0.0,997.6831,0,87.9324138683,13.35,65.46818,0.0,0.0,1.80078
2020-11-02T07:03:12Z,12.93148,13.01493,0.0,96.37538,0,1156,0.0,15.67672,0.0,43690,0.0,997.1262,0.0,0.0,995.3254,0,99.8196410003,13.15,106.7646,0.0,0.0,1.80078
2020-11-02T07:18:13Z,12.93148,12.74393,0.0,96.68026,0,1156,0.0,15.62701,0.0,43690,0.0,997.1262,0.0,0.0,995.3254,0,105.939418015,12.88,110.4685,0.0,0.0,1.80078
2020-11-02T07:33:10Z,12.93148,12.94718,0.0,96.91739,0,1156,0.0,15.57957,0.0,43690,0.0,997.1262,0.0,0.0,995.3254,0,101.887691354,13.05,90.31338,0.0,0.0,1.80078
2020-11-02T07:48:11Z,12.92596,13.89569,0.0,96.61251,0,1156,0.0,15.65187,0.0,43690,0.0,997.1262,0.0,0.0,995.3254,0,90.8747056003,13.9,94.61861,0.0,0.0,1.80078
2020-11-02T08:03:11Z,12.92045,14.16669,0.0,95.664,0,1156,0.0,15.84842,0.0,43690,0.0,994.1181,0.0,0.0,992.3173,0,87.1404748013,14.23,72.13045,0.0,0.0,1.80078
2020-11-02T08:18:12Z,12.92045,14.91195,0.0,93.76698,0,1156,0.0,16.06757,0.0,43690,0.0,994.1181,0.0,0.0,992.3173,0,38.8853561314,14.98,118.0688,0.0,0.0,1.80078
2020-11-02T08:33:13Z,12.90941,15.18295,0.0,92.00546,0,1156,0.0,16.36353,0.0,43690,0.0,994.1181,0.0,0.0,992.3173,0,22.1443832639,15.25,29.41499,0.0,0.0,1.80078
2020-11-02T08:48:15Z,12.91493,15.18295,0.0,90.92145,0,1156,0.0,16.58719,0.0,43690,0.0,994.1181,0.0,0.0,992.3173,0,19.2202669073,15.28,22.44005,0.0,0.0,1.80078
2020-11-02T09:03:12Z,12.9039,15.2507,0.0,89.53256,0,1156,0.0,16.71145,0.0,43690,0.0,991.7602,0.0,0.0,989.9594,0,26.6596205621,15.32,307.8351,0.0,0.0,1.80078
2020-11-02T09:18:13Z,12.90354,15.24988,0.0,89.5651,0,1156,0.0,16.78601,0.0,43690,0.0,991.7602,0.0,0.0,989.9594,0,23.8135186871,15.28,299.7735,0.0,0.0,1.80078
2020-11-02T09:33:14Z,12.90291,15.07747,0.0,90.2715,0,1156,0.0,16.88542,0.0,43690,0.0,991.7602,0.0,0.0,989.9594,0,16.0022356611,15.15,38.04681,0.0,0.0,1.80078
2020-11-02T09:48:15Z,12.90835,14.83832,0.0,90.91171,0,1156,0.0,16.91027,0.0,43690,0.0,991.7602,0.0,0.0,989.9594,0,42.0105964374,14.84,18.25313,0.0,0.0,1.80078
2020-11-02T10:03:16Z,12.90764,14.87156,0.0,90.67355,0,1156,0.0,16.91027,0.0,43690,0.0,990.4599,0.0,0.0,988.6591,0,28.0184667353,14.91,12.67364,0.0,0.0,1.80078
2020-11-02T10:18:12Z,12.90843,14.7346,0.0,91.11143,0,1156,0.0,16.91027,0.0,43690,0.0,990.4599,0.0,0.0,988.6591,0,13.7037919253,14.84,53.77132,0.0,0.0,1.80078
2020-11-02T10:33:15Z,12.90822,14.73731,0.0,91.79339,0,1156,0.0,16.88542,0.0,43690,0.0,990.4599,0.0,0.0,988.6591,0,56.1884102217,14.81,139.0284,0.0,0.0,1.80078
2020-11-02T10:48:16Z,12.9143,14.36564,0.0,92.37079,0,1156,0.0,16.78601,0.0,43690,0.0,990.4599,0.0,0.0,988.6591,0,65.7589849367,14.47,68.854,0.0,0.0,1.80078
2020-11-02T11:03:17Z,12.91491,14.43604,0.0004820049,91.73166,0,1156,0.0,16.66175,0.0,43690,0.03374034,988.1671,2.410024e-06,0.0,986.3663,0,92.5426973723,14.47,70.5409,0.0,0.0,1.80078
2020-11-02T11:18:18Z,12.92044,14.03112,0.002410047,92.68286,0,1156,0.0,16.51264,0.0,43690,0.1687033,988.1671,1.205024e-05,0.0,986.3663,0,99.2422417714,14.23,82.68895,0.0,0.0,1.80078
2020-11-02T11:33:19Z,12.92044,14.60703,0.001928038,90.65038,0,1156,0.0,16.46293,0.0,43690,0.1349627,988.1671,9.640189e-06,0.0,986.3663,0,100.021529323,14.64,76.05079,0.0,0.0,1.80078
2020-11-02T11:48:18Z,12.91492,14.20052,0.007712151,92.37802,0,1156,0.0,16.53749,0.0,43690,0.5398506,988.1671,3.856076e-05,0.0,986.3663,0,95.9295117418,14.23,99.38072,0.0,0.0,1.80078
2020-11-02T12:03:39Z,12.9094,13.99727,0.005302104,92.44577,0,1156,0.0,16.61205,0.0,43690,0.3711473,987.2885,2.651052e-05,0.0,985.4877,0,102.809950969,14.13,93.63242,0.0,0.0,1.80078
2020-11-02T12:18:47Z,12.9094,13.62465,0.01397828,92.71678,0,1156,0.0,16.6866,0.0,43690,0.9784792,987.2885,6.989137e-05,0.0,985.4877,0,105.196359807,13.73,94.1856,0.0,0.0,1.80078
2020-11-02T12:33:59Z,12.91492,13.89531,0.01687033,92.91944,0,1156,0.0,16.6369,0.0,43690,1.180923,987.2885,8.435166e-05,0.0,985.4877,0,100.258973258,13.9,101.4245,0.0,0.0,1.80078
2020-11-02T12:48:56Z,12.91492,14.13277,0.03711473,93.0894,0,1156,0.0,16.58719,0.0,43690,2.598031,987.2885,0.0001855736,0.0,985.4877,0,87.5459035271,14.07,109.2899,0.0,0.0,1.80078
2020-11-02T13:03:58Z,12.90389,14.74253,0.03036659,91.05688,0,1156,0.0,16.76116,0.0,43690,2.125662,985.012,0.000151833,0.0,983.2113,0,92.6886072384,14.74,161.4336,0.0,0.0,1.80078